Time,TemperatureF,DewpointF,PressureIn,WindDirection,WindDirectionDegrees,WindSpeedMPH,WindSpeedGustMPH,Humidity,HourlyPrecipIn,Conditions,Clouds,dailyrainin,SoftwareType,DateUTC
2013-09-25 00:02:00,42.8,35.8,29.72,SW,225,2.1,3.3,76,0.00,,,0.00,WUHU216TE923,2013-09-25 07:02:00,
2013-09-25 00:07:00,42.8,35.5,29.72,WSW,248,2.0,3.3,75,0.00,,,0.00,WUHU216TE923,2013-09-25 07:07:00,
2013-09-25 00:12:00,42.8,35.5,29.72,SW,225,2.1,2.9,75,0.00,,,0.00,WUHU216TE923,2013-09-25 07:12:00,
2013-09-25 00:17:00,42.8,35.5,29.72,SW,225,2.1,2.9,75,0.00,,,0.00,WUHU216TE923,2013-09-25 07:17:00,
2013-09-25 00:22:00,42.6,35.3,29.72,SSW,203,2.2,2.9,75,0.00,,,0.00,WUHU216TE923,2013-09-25 07:22:00,
2013-09-25 00:27:00,42.6,35.6,29.72,SE,135,1.6,2.6,76,0.00,,,0.00,WUHU216TE923,2013-09-25 07:27:00,
2013-09-25 00:32:00,42.4,35.1,29.72,SW,225,1.4,1.7,75,0.00,,,0.00,WUHU216TE923,2013-09-25 07:32:00,
2013-09-25 00:37:00,42.6,35.6,29.72,SSE,158,1.5,1.5,76,0.00,,,0.00,WUHU216TE923,2013-09-25 07:37:00,
2013-09-25 00:42:00,42.6,35.3,29.72,NNW,338,0.7,1.5,75,0.00,,,0.00,WUHU216TE923,2013-09-25 07:42:00,
2013-09-25 00:47:00,42.6,35.6,29.72,West,270,0.2,1.4,76,0.00,,,0.00,WUHU216TE923,2013-09-25 07:47:00,
2013-09-25 00:52:00,42.6,35.6,29.72,North,0,0.1,0.2,76,0.00,,,0.00,WUHU216TE923,2013-09-25 07:52:00,
2013-09-25 00:57:00,42.6,35.6,29.72,ENE,68,0.0,0.1,76,0.00,,,0.00,WUHU216TE923,2013-09-25 07:57:00,
2013-09-25 01:02:00,42.8,35.5,29.72,NNW,338,0.0,0.0,75,0.00,,,0.00,WUHU216TE923,2013-09-25 08:02:00,
2013-09-25 01:07:00,42.6,35.6,29.72,WNW,293,0.0,0.0,76,0.00,,,0.00,WUHU216TE923,2013-09-25 08:07:00,
2013-09-25 01:12:00,42.8,35.5,29.72,NW,315,0.0,0.0,75,0.00,,,0.00,WUHU216TE923,2013-09-25 08:12:00,
2013-09-25 01:17:00,42.6,35.6,29.72,SSW,203,0.0,0.0,76,0.00,,,0.00,WUHU216TE923,2013-09-25 08:17:00,
2013-09-25 01:23:00,42.6,35.9,29.72,SE,135,0.0,0.0,77,0.00,,,0.00,WUHU216TE923,2013-09-25 08:23:00,
2013-09-25 01:28:00,42.6,35.9,29.72,WSW,248,0.0,0.0,77,0.00,,,0.00,WUHU216TE923,2013-09-25 08:28:00,
2013-09-25 01:33:00,42.6,36.3,29.72,NW,315,0.0,0.0,78,0.00,,,0.00,WUHU216TE923,2013-09-25 08:33:00,
2013-09-25 01:38:00,42.6,36.3,29.72,NNW,338,0.0,0.0,78,0.00,,,0.00,WUHU216TE923,2013-09-25 08:38:00,
2013-09-25 01:43:00,42.4,36.4,29.72,WSW,248,0.0,0.0,79,0.00,,,0.00,WUHU216TE923,2013-09-25 08:43:00,
2013-09-25 01:48:00,42.6,36.6,29.72,ESE,113,0.0,0.0,79,0.00,,,0.00,WUHU216TE923,2013-09-25 08:48:00,
2013-09-25 01:53:00,42.3,36.3,29.72,SW,225,0.0,0.0,79,0.00,,,0.00,WUHU216TE923,2013-09-25 08:53:00,
2013-09-25 01:58:00,42.3,36.3,29.72,NW,315,0.0,0.0,79,0.00,,,0.00,WUHU216TE923,2013-09-25 08:58:00,
2013-09-25 02:03:00,42.3,36.6,29.72,SW,225,0.0,0.0,80,0.00,,,0.00,WUHU216TE923,2013-09-25 09:03:00,
2013-09-25 02:08:00,42.1,36.4,29.72,SW,225,0.0,0.0,80,0.00,,,0.00,WUHU216TE923,2013-09-25 09:08:00,
2013-09-25 02:13:00,41.9,36.2,29.72,WNW,293,0.0,0.0,80,0.00,,,0.00,WUHU216TE923,2013-09-25 09:13:00,
2013-09-25 02:18:00,42.1,36.7,29.72,West,270,0.0,0.0,81,0.00,,,0.00,WUHU216TE923,2013-09-25 09:18:00,
2013-09-25 02:23:00,41.9,36.5,29.72,ESE,113,0.1,0.1,81,0.00,,,0.00,WUHU216TE923,2013-09-25 09:23:00,
2013-09-25 02:28:00,42.1,36.7,29.72,West,270,0.2,0.2,81,0.00,,,0.00,WUHU216TE923,2013-09-25 09:28:00,
2013-09-25 02:33:00,42.1,36.7,29.72,WSW,248,0.2,1.0,81,0.00,,,0.00,WUHU216TE923,2013-09-25 09:33:00,
2013-09-25 02:38:00,41.9,36.5,29.72,NW,315,0.5,1.9,81,0.00,,,0.00,WUHU216TE923,2013-09-25 09:38:00,
2013-09-25 02:43:00,41.9,36.5,29.72,West,270,0.4,1.9,81,0.00,,,0.00,WUHU216TE923,2013-09-25 09:43:00,
2013-09-25 02:48:00,41.9,36.5,29.72,WNW,293,0.4,1.2,81,0.00,,,0.00,WUHU216TE923,2013-09-25 09:48:00,
2013-09-25 02:53:00,42.1,36.7,29.72,North,0,0.2,1.2,81,0.00,,,0.00,WUHU216TE923,2013-09-25 09:53:00,
2013-09-25 02:58:00,41.9,36.5,29.72,SSW,203,0.1,1.2,81,0.00,,,0.00,WUHU216TE923,2013-09-25 09:58:00,
2013-09-25 03:03:00,41.7,36.6,29.72,SSE,158,0.2,1.0,82,0.00,,,0.00,WUHU216TE923,2013-09-25 10:03:00,
2013-09-25 03:08:00,41.9,36.8,29.72,WNW,293,0.1,1.0,82,0.00,,,0.00,WUHU216TE923,2013-09-25 10:08:00,
2013-09-25 03:13:00,41.9,36.8,29.72,West,270,0.1,1.0,82,0.00,,,0.00,WUHU216TE923,2013-09-25 10:13:00,
2013-09-25 03:18:00,41.9,36.8,29.72,West,270,0.1,1.0,82,0.00,,,0.00,WUHU216TE923,2013-09-25 10:18:00,
2013-09-25 03:23:00,41.7,36.6,29.72,WSW,248,0.2,1.1,82,0.00,,,0.00,WUHU216TE923,2013-09-25 10:23:00,
2013-09-25 03:28:00,41.5,36.4,29.72,NNE,23,0.1,1.1,82,0.00,,,0.00,WUHU216TE923,2013-09-25 10:28:00,
2013-09-25 03:33:00,41.7,36.6,29.72,WSW,248,0.0,0.1,82,0.00,,,0.00,WUHU216TE923,2013-09-25 10:33:00,
2013-09-25 03:38:00,41.5,36.7,29.71,WNW,293,0.0,0.0,83,0.00,,,0.00,WUHU216TE923,2013-09-25 10:38:00,
2013-09-25 03:43:00,41.5,36.7,29.71,WSW,248,0.5,1.3,83,0.00,,,0.00,WUHU216TE923,2013-09-25 10:43:00,
2013-09-25 03:48:00,41.5,36.7,29.71,SW,225,0.7,2.4,83,0.02,,,0.02,WUHU216TE923,2013-09-25 10:48:00,
2013-09-25 03:53:00,41.4,36.6,29.71,SSW,203,0.7,2.4,83,0.02,,,0.02,WUHU216TE923,2013-09-25 10:53:00,
2013-09-25 03:58:00,41.4,36.6,29.71,WSW,248,0.8,1.5,83,0.02,,,0.02,WUHU216TE923,2013-09-25 10:58:00,
2013-09-25 04:03:00,41.5,36.7,29.71,West,270,1.5,4.4,83,0.02,,,0.02,WUHU216TE923,2013-09-25 11:03:00,
2013-09-25 04:08:00,41.4,36.6,29.71,SW,225,2.0,4.4,83,0.02,,,0.02,WUHU216TE923,2013-09-25 11:08:00,
2013-09-25 04:13:00,41.4,36.6,29.71,SW,225,2.7,4.2,83,0.02,,,0.02,WUHU216TE923,2013-09-25 11:13:00,
2013-09-25 04:18:00,41.2,36.1,29.71,SSW,203,3.0,4.2,82,0.02,,,0.02,WUHU216TE923,2013-09-25 11:18:00,
2013-09-25 04:23:00,41.2,36.1,29.71,South,180,3.1,4.2,82,0.02,,,0.02,WUHU216TE923,2013-09-25 11:23:00,
2013-09-25 04:28:00,41.2,36.1,29.71,SW,225,3.0,4.2,82,0.02,,,0.02,WUHU216TE923,2013-09-25 11:28:00,
2013-09-25 04:33:00,41.2,36.1,29.71,WSW,248,2.9,3.0,82,0.02,,,0.02,WUHU216TE923,2013-09-25 11:33:00,
2013-09-25 04:38:00,41.0,35.9,29.71,WSW,248,2.6,3.7,82,0.02,,,0.02,WUHU216TE923,2013-09-25 11:38:00,
2013-09-25 04:43:00,41.2,36.1,29.71,SW,225,2.9,5.1,82,0.00,,,0.02,WUHU216TE923,2013-09-25 11:43:00,
2013-09-25 04:48:00,41.2,36.1,29.71,South,180,3.0,5.1,82,0.00,,,0.02,WUHU216TE923,2013-09-25 11:48:00,
2013-09-25 04:53:00,41.0,35.9,29.71,South,180,3.0,3.7,82,0.00,,,0.02,WUHU216TE923,2013-09-25 11:53:00,
2013-09-25 04:58:00,41.0,35.6,29.71,South,180,2.9,5.6,81,0.00,,,0.02,WUHU216TE923,2013-09-25 11:58:00,
2013-09-25 05:03:00,41.0,35.9,29.71,SW,225,3.0,5.6,82,0.00,,,0.02,WUHU216TE923,2013-09-25 12:03:00,
2013-09-25 05:08:00,41.0,35.9,29.71,West,270,3.1,5.0,82,0.00,,,0.02,WUHU216TE923,2013-09-25 12:08:00,
2013-09-25 05:13:00,41.0,35.9,29.71,West,270,2.3,3.2,82,0.00,,,0.02,WUHU216TE923,2013-09-25 12:13:00,
2013-09-25 05:18:00,41.0,35.9,29.71,SE,135,2.2,2.3,82,0.00,,,0.02,WUHU216TE923,2013-09-25 12:18:00,
2013-09-25 05:23:00,41.0,35.9,29.71,SW,225,2.3,2.4,82,0.00,,,0.02,WUHU216TE923,2013-09-25 12:23:00,
2013-09-25 05:28:00,41.0,35.9,29.71,South,180,2.2,3.0,82,0.00,,,0.02,WUHU216TE923,2013-09-25 12:28:00,
2013-09-25 05:33:00,40.8,35.7,29.71,SSW,203,2.0,3.0,82,0.00,,,0.02,WUHU216TE923,2013-09-25 12:33:00,
2013-09-25 05:38:00,41.0,35.9,29.71,SW,225,1.8,3.0,82,0.00,,,0.02,WUHU216TE923,2013-09-25 12:38:00,
2013-09-25 05:43:00,41.0,35.9,29.71,SSE,158,1.4,1.8,82,0.00,,,0.02,WUHU216TE923,2013-09-25 12:43:00,
2013-09-25 05:48:00,40.8,35.7,29.71,WSW,248,0.7,1.4,82,0.00,,,0.02,WUHU216TE923,2013-09-25 12:48:00,
2013-09-25 05:53:00,40.8,35.7,29.71,South,180,0.3,1.9,82,0.00,,,0.02,WUHU216TE923,2013-09-25 12:53:00,
2013-09-25 05:58:00,40.8,35.7,29.71,South,180,0.9,1.9,82,0.00,,,0.02,WUHU216TE923,2013-09-25 12:58:00,
2013-09-25 06:03:00,40.6,35.5,29.71,SW,225,1.9,2.1,82,0.00,,,0.02,WUHU216TE923,2013-09-25 13:03:00,
2013-09-25 06:08:00,40.6,35.5,29.71,SW,225,2.1,6.4,82,0.00,,,0.02,WUHU216TE923,2013-09-25 13:08:00,
2013-09-25 06:13:00,40.6,35.5,29.71,SW,225,2.1,6.4,82,0.00,,,0.02,WUHU216TE923,2013-09-25 13:13:00,
2013-09-25 06:18:00,40.6,35.5,29.72,SW,225,2.1,6.4,82,0.00,,,0.02,WUHU216TE923,2013-09-25 13:18:00,
2013-09-25 06:23:00,40.3,34.9,29.72,WSW,248,2.2,6.4,81,0.00,,,0.02,WUHU216TE923,2013-09-25 13:23:00,
2013-09-25 06:28:00,40.3,35.2,29.72,South,180,2.5,3.6,82,0.00,,,0.02,WUHU216TE923,2013-09-25 13:28:00,
2013-09-25 06:33:00,40.3,34.9,29.72,SW,225,2.5,3.6,81,0.00,,,0.02,WUHU216TE923,2013-09-25 13:33:00,
2013-09-25 06:38:00,40.1,34.7,29.72,NW,315,2.5,2.9,81,0.00,,,0.02,WUHU216TE923,2013-09-25 13:38:00,
2013-09-25 06:43:00,39.9,34.6,29.72,SW,225,2.5,2.5,81,0.00,,,0.02,WUHU216TE923,2013-09-25 13:43:00,
2013-09-25 06:48:00,39.7,34.4,29.72,SW,225,2.2,3.3,81,0.00,,,0.02,WUHU216TE923,2013-09-25 13:48:00,
2013-09-25 06:53:00,39.7,34.4,29.72,SW,225,2.1,3.3,81,0.00,,,0.02,WUHU216TE923,2013-09-25 13:53:00,
2013-09-25 06:58:00,39.7,34.4,29.73,NW,315,1.8,2.4,81,0.00,,,0.02,WUHU216TE923,2013-09-25 13:58:00,
2013-09-25 07:03:00,39.7,34.4,29.73,West,270,1.4,2.3,81,0.00,,,0.02,WUHU216TE923,2013-09-25 14:03:00,
2013-09-25 07:08:00,39.7,34.4,29.73,South,180,1.4,2.3,81,0.00,,,0.02,WUHU216TE923,2013-09-25 14:08:00,
2013-09-25 07:13:00,39.7,34.4,29.73,SW,225,1.5,1.5,81,0.00,,,0.02,WUHU216TE923,2013-09-25 14:13:00,
2013-09-25 07:18:00,39.9,34.9,29.73,WSW,248,1.3,1.8,82,0.00,,,0.02,WUHU216TE923,2013-09-25 14:18:00,
2013-09-25 07:23:00,39.9,34.6,29.73,West,270,1.7,1.8,81,0.00,,,0.02,WUHU216TE923,2013-09-25 14:23:00,
2013-09-25 07:28:00,39.9,34.6,29.73,SW,225,1.8,2.7,81,0.00,,,0.02,WUHU216TE923,2013-09-25 14:28:00,
2013-09-25 07:33:00,39.9,34.6,29.73,South,180,1.7,2.7,81,0.00,,,0.02,WUHU216TE923,2013-09-25 14:33:00,
2013-09-25 07:38:00,39.9,34.6,29.73,WSW,248,1.7,3.4,81,0.00,,,0.02,WUHU216TE923,2013-09-25 14:38:00,
2013-09-25 07:43:00,40.1,34.7,29.73,SW,225,2.0,4.3,81,0.00,,,0.02,WUHU216TE923,2013-09-25 14:43:00,
2013-09-25 07:48:00,40.1,34.7,29.73,NNE,23,2.4,4.3,81,0.00,,,0.02,WUHU216TE923,2013-09-25 14:48:00,
2013-09-25 07:53:00,40.3,34.9,29.73,NNW,338,1.9,2.4,81,0.00,,,0.02,WUHU216TE923,2013-09-25 14:53:00,
2013-09-25 07:58:00,40.3,34.6,29.74,South,180,1.5,1.9,80,0.00,,,0.02,WUHU216TE923,2013-09-25 14:58:00,
2013-09-25 08:03:00,40.3,34.9,29.74,South,180,1.2,1.5,81,0.00,,,0.02,WUHU216TE923,2013-09-25 15:03:00,
2013-09-25 08:08:00,40.3,34.6,29.74,WSW,248,1.2,1.6,80,0.00,,,0.02,WUHU216TE923,2013-09-25 15:08:00,
2013-09-25 08:13:00,40.5,34.8,29.74,SSW,203,0.9,3.0,80,0.00,,,0.02,WUHU216TE923,2013-09-25 15:13:00,
2013-09-25 08:18:00,40.6,34.9,29.74,SSW,203,0.9,3.0,80,0.00,,,0.02,WUHU216TE923,2013-09-25 15:18:00,
2013-09-25 08:23:00,40.6,34.9,29.74,SW,225,1.3,2.0,80,0.00,,,0.02,WUHU216TE923,2013-09-25 15:23:00,
2013-09-25 08:28:00,40.6,34.9,29.74,NW,315,1.3,1.8,80,0.00,,,0.02,WUHU216TE923,2013-09-25 15:28:00,
2013-09-25 08:33:00,41.0,35.0,29.74,NNW,338,1.0,1.8,79,0.00,,,0.02,WUHU216TE923,2013-09-25 15:33:00,
2013-09-25 08:38:00,41.0,35.0,29.76,NNW,338,0.8,1.0,79,0.00,,,0.02,WUHU216TE923,2013-09-25 15:38:00,
2013-09-25 08:43:00,41.0,35.0,29.76,WSW,248,0.8,1.5,79,0.00,,,0.02,WUHU216TE923,2013-09-25 15:43:00,
2013-09-25 08:48:00,41.2,35.2,29.76,West,270,0.7,1.5,79,0.00,,,0.02,WUHU216TE923,2013-09-25 15:48:00,
2013-09-25 08:53:00,41.2,35.2,29.76,WNW,293,0.4,1.5,79,0.00,,,0.02,WUHU216TE923,2013-09-25 15:53:00,
2013-09-25 08:58:00,41.4,35.4,29.75,West,270,0.2,1.5,79,0.00,,,0.02,WUHU216TE923,2013-09-25 15:58:00,
2013-09-25 09:03:00,41.9,35.9,29.75,SW,225,0.5,0.5,79,0.00,,,0.02,WUHU216TE923,2013-09-25 16:03:00,
2013-09-25 09:08:00,41.9,35.9,29.75,NW,315,0.6,1.3,79,0.00,,,0.02,WUHU216TE923,2013-09-25 16:08:00,
2013-09-25 09:13:00,42.1,35.8,29.75,SW,225,0.8,4.0,78,0.00,,,0.02,WUHU216TE923,2013-09-25 16:13:00,
2013-09-25 09:18:00,42.1,35.8,29.76,West,270,1.3,4.0,78,0.00,,,0.02,WUHU216TE923,2013-09-25 16:18:00,
2013-09-25 09:23:00,42.3,36.0,29.76,South,180,1.7,2.3,78,0.00,,,0.02,WUHU216TE923,2013-09-25 16:23:00,
2013-09-25 09:28:00,42.3,36.0,29.76,SW,225,1.4,2.0,78,0.00,,,0.02,WUHU216TE923,2013-09-25 16:28:00,
2013-09-25 09:33:00,42.3,35.6,29.76,SSW,203,1.3,2.0,77,0.00,,,0.02,WUHU216TE923,2013-09-25 16:33:00,
2013-09-25 09:38:00,42.3,35.6,29.77,SE,135,1.3,2.3,77,0.00,,,0.02,WUHU216TE923,2013-09-25 16:38:00,
2013-09-25 09:43:00,42.4,35.7,29.77,WSW,248,1.2,2.3,77,0.00,,,0.02,WUHU216TE923,2013-09-25 16:43:00,
2013-09-25 09:48:00,42.6,35.9,29.77,WNW,293,0.8,1.8,77,0.00,,,0.02,WUHU216TE923,2013-09-25 16:48:00,
2013-09-25 09:53:00,42.8,35.5,29.77,SSE,158,0.9,2.1,75,0.00,,,0.02,WUHU216TE923,2013-09-25 16:53:00,
2013-09-25 09:58:00,43.0,35.7,29.76,West,270,0.9,2.1,75,0.00,,,0.02,WUHU216TE923,2013-09-25 16:58:00,
2013-09-25 10:03:00,43.2,35.9,29.76,NNE,23,0.5,1.3,75,0.00,,,0.02,WUHU216TE923,2013-09-25 17:03:00,
2013-09-25 10:08:00,43.3,36.0,29.76,SSW,203,0.4,0.5,75,0.00,,,0.02,WUHU216TE923,2013-09-25 17:08:00,
2013-09-25 10:13:00,43.3,35.6,29.76,ENE,68,0.3,0.4,74,0.00,,,0.02,WUHU216TE923,2013-09-25 17:13:00,
2013-09-25 10:18:00,43.5,35.8,29.76,NE,45,0.2,0.3,74,0.00,,,0.02,WUHU216TE923,2013-09-25 17:18:00,
2013-09-25 10:23:00,43.9,35.9,29.76,ENE,68,0.1,0.2,73,0.00,,,0.02,WUHU216TE923,2013-09-25 17:23:00,
2013-09-25 10:28:00,43.9,35.9,29.76,East,90,0.4,0.4,73,0.00,,,0.02,WUHU216TE923,2013-09-25 17:28:00,
2013-09-25 10:33:00,44.1,35.7,29.76,SE,135,0.5,1.2,72,0.00,,,0.02,WUHU216TE923,2013-09-25 17:33:00,
2013-09-25 10:38:00,44.2,35.5,29.76,ESE,113,0.3,1.8,71,0.00,,,0.02,WUHU216TE923,2013-09-25 17:38:00,
2013-09-25 10:43:00,44.4,35.7,29.76,NW,315,0.6,1.8,71,0.00,,,0.02,WUHU216TE923,2013-09-25 17:43:00,
2013-09-25 10:48:00,44.4,35.3,29.76,NNW,338,0.9,1.8,70,0.00,,,0.02,WUHU216TE923,2013-09-25 17:48:00,
2013-09-25 10:53:00,44.8,35.7,29.76,NNE,23,1.3,1.8,70,0.00,,,0.02,WUHU216TE923,2013-09-25 17:53:00,
2013-09-25 10:58:00,45.0,35.9,29.78,North,0,1.2,1.6,70,0.00,,,0.02,WUHU216TE923,2013-09-25 17:58:00,
2013-09-25 11:03:00,45.3,35.8,29.78,NNW,338,1.1,1.7,69,0.00,,,0.02,WUHU216TE923,2013-09-25 18:03:00,
2013-09-25 11:08:00,45.3,35.8,29.78,SE,135,1.0,1.7,69,0.00,,,0.02,WUHU216TE923,2013-09-25 18:08:00,
2013-09-25 11:13:00,45.7,36.2,29.78,NNW,338,1.0,2.9,69,0.00,,,0.02,WUHU216TE923,2013-09-25 18:13:00,
2013-09-25 11:18:00,45.7,35.8,29.77,North,0,1.2,2.9,68,0.00,,,0.02,WUHU216TE923,2013-09-25 18:18:00,
2013-09-25 11:23:00,46.0,36.1,29.77,NNW,338,1.1,2.5,68,0.00,,,0.02,WUHU216TE923,2013-09-25 18:23:00,
2013-09-25 11:28:00,46.2,35.9,29.77,ENE,68,1.3,2.5,67,0.00,,,0.02,WUHU216TE923,2013-09-25 18:28:00,
2013-09-25 11:33:00,46.2,35.9,29.77,North,0,1.9,2.5,67,0.00,,,0.02,WUHU216TE923,2013-09-25 18:33:00,
2013-09-25 11:38:00,46.6,35.9,29.77,NE,45,2.1,4.3,66,0.00,,,0.02,WUHU216TE923,2013-09-25 18:38:00,
2013-09-25 11:43:00,46.6,35.2,29.77,NNW,338,2.2,4.3,64,0.00,,,0.02,WUHU216TE923,2013-09-25 18:43:00,
2013-09-25 11:48:00,46.6,35.2,29.77,NW,315,2.0,3.4,64,0.00,,,0.02,WUHU216TE923,2013-09-25 18:48:00,
2013-09-25 11:53:00,46.8,35.4,29.77,NW,315,1.7,2.0,64,0.00,,,0.02,WUHU216TE923,2013-09-25 18:53:00,
2013-09-25 11:58:00,46.9,35.1,29.76,NNE,23,1.5,2.8,63,0.00,,,0.02,WUHU216TE923,2013-09-25 18:58:00,
2013-09-25 12:03:00,47.3,35.0,29.76,NNW,338,1.3,2.8,62,0.00,,,0.02,WUHU216TE923,2013-09-25 19:03:00,
2013-09-25 12:08:00,47.1,34.4,29.76,SW,225,1.4,1.7,61,0.00,,,0.02,WUHU216TE923,2013-09-25 19:08:00,
2013-09-25 12:13:00,47.1,34.4,29.76,NE,45,1.5,2.4,61,0.00,,,0.02,WUHU216TE923,2013-09-25 19:13:00,
2013-09-25 12:18:00,47.1,34.4,29.76,NE,45,1.5,2.4,61,0.00,,,0.02,WUHU216TE923,2013-09-25 19:18:00,
2013-09-25 12:23:00,47.3,33.8,29.76,North,0,2.1,4.4,59,0.00,,,0.02,WUHU216TE923,2013-09-25 19:23:00,
2013-09-25 12:28:00,47.3,33.8,29.76,NNW,338,2.3,4.4,59,0.00,,,0.02,WUHU216TE923,2013-09-25 19:28:00,
2013-09-25 12:33:00,47.3,33.3,29.76,NNE,23,2.7,3.4,58,0.00,,,0.02,WUHU216TE923,2013-09-25 19:33:00,
2013-09-25 12:38:00,47.5,33.5,29.77,NNE,23,2.7,2.9,58,0.00,,,0.02,WUHU216TE923,2013-09-25 19:38:00,
2013-09-25 12:43:00,47.5,33.1,29.77,NW,315,3.3,7.4,57,0.00,,,0.02,WUHU216TE923,2013-09-25 19:43:00,
2013-09-25 12:48:00,47.5,33.1,29.77,ENE,68,3.9,7.4,57,0.00,,,0.02,WUHU216TE923,2013-09-25 19:48:00,
2013-09-25 12:53:00,47.7,33.3,29.77,NNE,23,3.5,4.2,57,0.00,,,0.02,WUHU216TE923,2013-09-25 19:53:00,
2013-09-25 12:58:00,47.8,33.4,29.78,ENE,68,3.0,3.5,57,0.00,,,0.02,WUHU216TE923,2013-09-25 19:58:00,
2013-09-25 13:03:00,47.8,33.4,29.78,NNE,23,3.3,5.3,57,0.00,,,0.02,WUHU216TE923,2013-09-25 20:03:00,
2013-09-25 13:08:00,47.7,33.3,29.78,NW,315,3.3,5.3,57,0.00,,,0.02,WUHU216TE923,2013-09-25 20:08:00,
2013-09-25 13:13:00,47.8,33.4,29.78,NNE,23,2.9,4.1,57,0.00,,,0.02,WUHU216TE923,2013-09-25 20:13:00,
2013-09-25 13:18:00,47.7,33.3,29.77,SE,135,2.8,4.0,57,0.00,,,0.02,WUHU216TE923,2013-09-25 20:18:00,
2013-09-25 13:23:00,47.8,33.4,29.77,ESE,113,3.1,4.6,57,0.00,,,0.02,WUHU216TE923,2013-09-25 20:23:00,
2013-09-25 13:28:00,47.8,32.9,29.77,ENE,68,3.1,4.6,56,0.00,,,0.02,WUHU216TE923,2013-09-25 20:28:00,
2013-09-25 13:33:00,48.0,33.5,29.77,NNW,338,3.4,6.9,57,0.00,,,0.02,WUHU216TE923,2013-09-25 20:33:00,
2013-09-25 13:38:00,48.4,33.5,29.77,NE,45,3.1,6.9,56,0.00,,,0.02,WUHU216TE923,2013-09-25 20:38:00,
2013-09-25 13:43:00,48.6,33.7,29.77,NNE,23,3.3,3.3,56,0.00,,,0.02,WUHU216TE923,2013-09-25 20:43:00,
2013-09-25 13:48:00,48.6,32.7,29.77,ENE,68,3.5,7.3,54,0.00,,,0.02,WUHU216TE923,2013-09-25 20:48:00,
2013-09-25 13:53:00,48.6,33.2,29.77,NW,315,3.5,7.3,55,0.00,,,0.02,WUHU216TE923,2013-09-25 20:53:00,
2013-09-25 13:58:00,48.9,33.0,29.76,ESE,113,3.4,3.5,54,0.00,,,0.02,WUHU216TE923,2013-09-25 20:58:00,
2013-09-25 14:03:00,49.3,33.9,29.76,NNE,23,3.0,6.3,55,0.00,,,0.02,WUHU216TE923,2013-09-25 21:03:00,
2013-09-25 14:08:00,49.1,34.1,29.76,NNE,23,3.4,6.3,56,0.00,,,0.02,WUHU216TE923,2013-09-25 21:08:00,
2013-09-25 14:13:00,48.9,34.4,29.76,ENE,68,4.3,6.8,57,0.00,,,0.02,WUHU216TE923,2013-09-25 21:13:00,
2013-09-25 14:18:00,49.1,34.6,29.77,SE,135,3.8,6.8,57,0.00,,,0.02,WUHU216TE923,2013-09-25 21:18:00,
2013-09-25 14:23:00,49.3,34.8,29.77,NNE,23,2.9,5.0,57,0.00,,,0.02,WUHU216TE923,2013-09-25 21:23:00,
2013-09-25 14:28:00,49.5,34.5,29.77,ENE,68,2.7,3.4,56,0.00,,,0.02,WUHU216TE923,2013-09-25 21:28:00,
2013-09-25 14:33:00,49.3,34.3,29.77,North,0,2.9,3.6,56,0.00,,,0.02,WUHU216TE923,2013-09-25 21:33:00,
2013-09-25 14:38:00,49.3,34.3,29.77,NNW,338,2.8,3.6,56,0.00,,,0.02,WUHU216TE923,2013-09-25 21:38:00,
2013-09-25 14:43:00,48.9,33.5,29.77,ENE,68,2.6,3.9,55,0.00,,,0.02,WUHU216TE923,2013-09-25 21:43:00,
2013-09-25 14:48:00,48.9,33.9,29.77,ENE,68,3.0,6.5,56,0.00,,,0.02,WUHU216TE923,2013-09-25 21:48:00,
2013-09-25 14:53:00,48.9,33.9,29.77,NE,45,2.7,6.5,56,0.00,,,0.02,WUHU216TE923,2013-09-25 21:53:00,
2013-09-25 14:58:00,48.9,33.9,29.77,SE,135,2.5,3.2,56,0.00,,,0.02,WUHU216TE923,2013-09-25 21:58:00,
2013-09-25 15:03:00,48.7,33.8,29.77,ENE,68,2.4,4.9,56,0.00,,,0.02,WUHU216TE923,2013-09-25 22:03:00,
2013-09-25 15:08:00,48.9,33.0,29.77,NNE,23,3.2,4.9,54,0.00,,,0.02,WUHU216TE923,2013-09-25 22:08:00,
2013-09-25 15:13:00,48.2,34.6,29.77,NNE,23,4.4,5.1,59,0.00,,,0.02,WUHU216TE923,2013-09-25 22:13:00,
2013-09-25 15:18:00,47.8,34.7,29.78,ENE,68,4.5,6.2,60,0.00,,,0.02,WUHU216TE923,2013-09-25 22:18:00,
2013-09-25 15:23:00,46.9,35.1,29.78,ESE,113,3.9,6.2,63,0.00,,,0.02,WUHU216TE923,2013-09-25 22:23:00,
2013-09-25 15:28:00,46.9,35.1,29.78,ESE,113,3.9,3.9,63,0.00,,,0.02,WUHU216TE923,2013-09-25 22:28:00,
2013-09-25 15:33:00,46.4,35.0,29.78,ENE,68,1.8,1.8,64,0.00,,,0.02,WUHU216TE923,2013-09-25 22:33:00,
2013-09-25 15:38:00,46.2,34.8,29.78,NE,45,1.2,2.1,64,0.00,,,0.02,WUHU216TE923,2013-09-25 22:38:00,
2013-09-25 15:43:00,46.4,34.2,29.78,NE,45,1.0,2.5,62,0.00,,,0.02,WUHU216TE923,2013-09-25 22:43:00,
2013-09-25 15:48:00,46.6,34.4,29.78,East,90,1.0,3.1,62,0.00,,,0.02,WUHU216TE923,2013-09-25 22:48:00,
2013-09-25 15:53:00,46.9,34.6,29.78,ENE,68,1.7,3.1,62,0.00,,,0.02,WUHU216TE923,2013-09-25 22:53:00,
2013-09-25 15:58:00,47.3,34.6,29.78,ESE,113,1.7,2.8,61,0.00,,,0.02,WUHU216TE923,2013-09-25 22:58:00,
2013-09-25 16:03:00,47.5,34.4,29.78,ENE,68,1.5,3.4,60,0.00,,,0.02,WUHU216TE923,2013-09-25 23:03:00,
2013-09-25 16:08:00,47.5,34.4,29.78,NE,45,1.6,3.4,60,0.00,,,0.02,WUHU216TE923,2013-09-25 23:08:00,
2013-09-25 16:13:00,47.7,34.6,29.78,NE,45,2.2,4.7,60,0.00,,,0.02,WUHU216TE923,2013-09-25 23:13:00,
2013-09-25 16:18:00,47.7,34.1,29.78,NNE,23,2.4,6.9,59,0.00,,,0.02,WUHU216TE923,2013-09-25 23:18:00,
2013-09-25 16:23:00,48.0,34.4,29.78,North,0,3.3,6.9,59,0.00,,,0.02,WUHU216TE923,2013-09-25 23:23:00,
2013-09-25 16:28:00,48.4,34.8,29.78,East,90,3.9,10.5,59,0.00,,,0.02,WUHU216TE923,2013-09-25 23:28:00,
2013-09-25 16:33:00,48.2,34.6,29.78,NNE,23,3.6,10.5,59,0.00,,,0.02,WUHU216TE923,2013-09-25 23:33:00,
2013-09-25 16:38:00,48.4,34.8,29.78,NW,315,3.1,3.6,59,0.00,,,0.02,WUHU216TE923,2013-09-25 23:38:00,
2013-09-25 16:43:00,48.4,33.9,29.78,NE,45,2.9,3.1,57,0.00,,,0.02,WUHU216TE923,2013-09-25 23:43:00,
2013-09-25 16:48:00,48.4,33.9,29.78,East,90,3.1,4.5,57,0.00,,,0.02,WUHU216TE923,2013-09-25 23:48:00,
2013-09-25 16:53:00,48.2,34.2,29.78,ENE,68,3.8,4.5,58,0.00,,,0.02,WUHU216TE923,2013-09-25 23:53:00,
2013-09-25 16:58:00,47.5,34.8,29.79,ENE,68,3.2,3.8,61,0.00,,,0.02,WUHU216TE923,2013-09-25 23:58:00,
2013-09-25 17:03:00,46.9,36.2,29.79,NE,45,2.6,4.7,66,0.00,,,0.02,WUHU216TE923,2013-09-26 00:03:00,
2013-09-25 17:08:00,46.8,36.9,29.79,SSE,158,2.9,4.7,68,0.00,,,0.02,WUHU216TE923,2013-09-26 00:08:00,
2013-09-25 17:13:00,46.8,37.3,29.79,NNW,338,3.4,3.4,69,0.00,,,0.02,WUHU216TE923,2013-09-26 00:13:00,
2013-09-25 17:18:00,46.6,37.4,29.80,NE,45,3.3,6.6,70,0.00,,,0.02,WUHU216TE923,2013-09-26 00:18:00,
2013-09-25 17:23:00,46.2,36.7,29.80,ENE,68,3.7,6.6,69,0.00,,,0.02,WUHU216TE923,2013-09-26 00:23:00,
2013-09-25 17:28:00,46.2,36.3,29.80,ENE,68,4.3,4.3,68,0.00,,,0.02,WUHU216TE923,2013-09-26 00:28:00,
2013-09-25 17:33:00,46.0,35.8,29.80,NE,45,3.6,4.6,67,0.00,,,0.02,WUHU216TE923,2013-09-26 00:33:00,
2013-09-25 17:38:00,46.0,35.4,29.80,SE,135,3.2,5.5,66,0.00,,,0.02,WUHU216TE923,2013-09-26 00:38:00,
2013-09-25 17:43:00,46.0,35.4,29.80,NNE,23,2.5,5.5,66,0.00,,,0.02,WUHU216TE923,2013-09-26 00:43:00,
2013-09-25 17:48:00,46.0,35.0,29.80,NNW,338,2.5,3.9,65,0.00,,,0.02,WUHU216TE923,2013-09-26 00:48:00,
2013-09-25 17:53:00,46.2,35.2,29.80,NW,315,1.9,3.9,65,0.00,,,0.02,WUHU216TE923,2013-09-26 00:53:00,
2013-09-25 17:58:00,46.0,35.0,29.80,NNE,23,1.4,2.4,65,0.00,,,0.02,WUHU216TE923,2013-09-26 00:58:00,
2013-09-25 18:03:00,46.0,34.6,29.80,ENE,68,1.8,3.0,64,0.00,,,0.02,WUHU216TE923,2013-09-26 01:03:00,
2013-09-25 18:08:00,45.9,34.5,29.80,NNE,23,1.7,3.0,64,0.00,,,0.02,WUHU216TE923,2013-09-26 01:08:00,
2013-09-25 18:13:00,45.9,34.5,29.80,ENE,68,1.5,2.4,64,0.00,,,0.02,WUHU216TE923,2013-09-26 01:13:00,
2013-09-25 18:18:00,45.7,34.3,29.80,East,90,1.7,2.0,64,0.00,,,0.02,WUHU216TE923,2013-09-26 01:18:00,
2013-09-25 18:23:00,45.7,34.3,29.80,NNE,23,2.3,5.1,64,0.00,,,0.02,WUHU216TE923,2013-09-26 01:23:00,
2013-09-25 18:28:00,45.7,34.7,29.80,NW,315,2.7,5.1,65,0.00,,,0.02,WUHU216TE923,2013-09-26 01:28:00,
2013-09-25 18:33:00,45.7,34.7,29.80,NNE,23,3.3,5.5,65,0.00,,,0.02,WUHU216TE923,2013-09-26 01:33:00,
2013-09-25 18:38:00,45.7,34.3,29.81,NNW,338,3.7,6.5,64,0.00,,,0.02,WUHU216TE923,2013-09-26 01:38:00,
2013-09-25 18:43:00,45.7,34.3,29.81,North,0,3.6,6.5,64,0.00,,,0.02,WUHU216TE923,2013-09-26 01:43:00,
2013-09-25 18:48:00,45.5,34.1,29.81,NNE,23,3.1,3.6,64,0.00,,,0.02,WUHU216TE923,2013-09-26 01:48:00,
2013-09-25 18:54:00,45.5,34.1,29.81,ESE,113,3.5,5.4,64,0.00,,,0.02,WUHU216TE923,2013-09-26 01:54:00,
2013-09-25 18:59:00,45.3,33.9,29.82,NW,315,4.0,5.4,64,0.00,,,0.02,WUHU216TE923,2013-09-26 01:59:00,
2013-09-25 19:04:00,45.3,33.9,29.82,NNE,23,3.6,5.3,64,0.00,,,0.02,WUHU216TE923,2013-09-26 02:04:00,
2013-09-25 19:09:00,45.1,33.3,29.82,NNE,23,3.6,5.1,63,0.00,,,0.02,WUHU216TE923,2013-09-26 02:09:00,
2013-09-25 19:14:00,45.0,33.2,29.82,NNW,338,3.7,5.5,63,0.00,,,0.02,WUHU216TE923,2013-09-26 02:14:00,
2013-09-25 19:19:00,44.8,32.7,29.82,NW,315,3.8,6.0,62,0.00,,,0.02,WUHU216TE923,2013-09-26 02:19:00,
2013-09-25 19:24:00,44.8,32.7,29.82,North,0,3.7,6.0,62,0.00,,,0.02,WUHU216TE923,2013-09-26 02:24:00,
2013-09-25 19:29:00,44.6,32.5,29.82,NNE,23,3.8,4.9,62,0.00,,,0.02,WUHU216TE923,2013-09-26 02:29:00,
2013-09-25 19:34:00,44.4,32.3,29.82,NNE,23,4.1,9.1,62,0.00,,,0.02,WUHU216TE923,2013-09-26 02:34:00,
2013-09-25 19:39:00,44.2,32.1,29.82,NNW,338,4.3,9.1,62,0.00,,,0.02,WUHU216TE923,2013-09-26 02:39:00,
2013-09-25 19:44:00,44.1,32.0,29.82,NE,45,4.2,4.3,62,0.00,,,0.02,WUHU216TE923,2013-09-26 02:44:00,
2013-09-25 19:49:00,44.1,32.0,29.82,NNE,23,3.6,4.8,62,0.00,,,0.02,WUHU216TE923,2013-09-26 02:49:00,
2013-09-25 19:54:00,43.9,32.2,29.82,NNW,338,3.7,5.7,63,0.00,,,0.02,WUHU216TE923,2013-09-26 02:54:00,
2013-09-25 19:59:00,43.7,32.0,29.82,NW,315,3.9,5.7,63,0.00,,,0.02,WUHU216TE923,2013-09-26 02:59:00,
2013-09-25 20:04:00,43.7,32.0,29.82,NNW,338,3.5,5.1,63,0.00,,,0.02,WUHU216TE923,2013-09-26 03:04:00,
2013-09-25 20:09:00,43.5,32.2,29.82,NW,315,3.0,5.1,64,0.00,,,0.02,WUHU216TE923,2013-09-26 03:09:00,
2013-09-25 20:14:00,43.3,32.0,29.82,NW,315,2.7,5.1,64,0.00,,,0.02,WUHU216TE923,2013-09-26 03:14:00,
2013-09-25 20:19:00,43.3,32.0,29.83,NNE,23,2.4,3.0,64,0.00,,,0.02,WUHU216TE923,2013-09-26 03:19:00,
2013-09-25 20:24:00,43.3,32.0,29.83,NNE,23,1.8,2.9,64,0.00,,,0.02,WUHU216TE923,2013-09-26 03:24:00,
2013-09-25 20:29:00,43.2,32.3,29.83,NW,315,1.7,2.6,65,0.00,,,0.02,WUHU216TE923,2013-09-26 03:29:00,
2013-09-25 20:34:00,43.0,32.1,29.83,NNW,338,1.7,2.6,65,0.00,,,0.02,WUHU216TE923,2013-09-26 03:34:00,
2013-09-25 20:39:00,43.0,32.1,29.84,NNE,23,1.6,2.1,65,0.00,,,0.02,WUHU216TE923,2013-09-26 03:39:00,
2013-09-25 20:44:00,42.8,31.9,29.84,North,0,1.5,2.3,65,0.00,,,0.02,WUHU216TE923,2013-09-26 03:44:00,
2013-09-25 20:49:00,42.6,32.5,29.84,NNW,338,1.6,2.3,67,0.00,,,0.02,WUHU216TE923,2013-09-26 03:49:00,
2013-09-25 20:54:00,42.4,32.3,29.84,NNE,23,1.9,2.0,67,0.00,,,0.02,WUHU216TE923,2013-09-26 03:54:00,
2013-09-25 20:59:00,42.4,32.3,29.85,NNE,23,2.0,3.3,67,0.00,,,0.02,WUHU216TE923,2013-09-26 03:59:00,
2013-09-25 21:04:00,42.3,32.2,29.85,NNW,338,2.3,3.3,67,0.00,,,0.02,WUHU216TE923,2013-09-26 04:04:00,
2013-09-25 21:09:00,42.1,32.0,29.85,NW,315,2.2,3.7,67,0.00,,,0.02,WUHU216TE923,2013-09-26 04:09:00,
2013-09-25 21:14:00,42.1,32.4,29.85,NNW,338,2.2,3.7,68,0.00,,,0.02,WUHU216TE923,2013-09-26 04:14:00,
2013-09-25 21:19:00,42.1,32.0,29.85,North,0,2.3,3.4,67,0.00,,,0.02,WUHU216TE923,2013-09-26 04:19:00,
2013-09-25 21:24:00,41.9,32.2,29.85,NW,315,2.1,3.6,68,0.00,,,0.02,WUHU216TE923,2013-09-26 04:24:00,
2013-09-25 21:29:00,41.9,31.8,29.85,NNW,338,2.1,3.6,67,0.00,,,0.02,WUHU216TE923,2013-09-26 04:29:00,
2013-09-25 21:34:00,41.7,31.6,29.85,NW,315,2.4,3.3,67,0.00,,,0.02,WUHU216TE923,2013-09-26 04:34:00,
2013-09-25 21:39:00,41.7,31.6,29.85,WNW,293,2.1,2.4,67,0.00,,,0.02,WUHU216TE923,2013-09-26 04:39:00,
2013-09-25 21:44:00,41.5,31.4,29.85,South,180,1.6,2.1,67,0.00,,,0.02,WUHU216TE923,2013-09-26 04:44:00,
2013-09-25 21:49:00,41.4,31.3,29.85,NNW,338,1.7,3.0,67,0.00,,,0.02,WUHU216TE923,2013-09-26 04:49:00,
2013-09-25 21:54:00,41.4,31.3,29.85,NW,315,1.7,3.0,67,0.00,,,0.02,WUHU216TE923,2013-09-26 04:54:00,
2013-09-25 21:59:00,41.4,31.3,29.86,NNW,338,1.9,3.3,67,0.00,,,0.02,WUHU216TE923,2013-09-26 04:59:00,
2013-09-25 22:04:00,41.4,31.3,29.86,NNW,338,2.1,3.3,67,0.00,,,0.02,WUHU216TE923,2013-09-26 05:04:00,
2013-09-25 22:09:00,41.4,31.3,29.86,NNE,23,2.1,2.8,67,0.00,,,0.02,WUHU216TE923,2013-09-26 05:09:00,
2013-09-25 22:14:00,41.2,31.2,29.86,NNE,23,2.1,2.8,67,0.00,,,0.02,WUHU216TE923,2013-09-26 05:14:00,
2013-09-25 22:19:00,41.2,31.2,29.85,WSW,248,2.1,3.0,67,0.00,,,0.02,WUHU216TE923,2013-09-26 05:19:00,
2013-09-25 22:24:00,41.2,31.2,29.85,NW,315,1.9,3.3,67,0.00,,,0.02,WUHU216TE923,2013-09-26 05:24:00,
2013-09-25 22:29:00,41.2,31.2,29.85,SE,135,1.7,3.3,67,0.00,,,0.02,WUHU216TE923,2013-09-26 05:29:00,
2013-09-25 22:34:00,41.0,31.0,29.85,NNE,23,2.0,2.6,67,0.00,,,0.02,WUHU216TE923,2013-09-26 05:34:00,
2013-09-25 22:39:00,41.0,31.0,29.86,NW,315,2.0,2.6,67,0.00,,,0.02,WUHU216TE923,2013-09-26 05:39:00,
2013-09-25 22:44:00,40.8,31.1,29.86,NNE,23,2.0,2.6,68,0.00,,,0.02,WUHU216TE923,2013-09-26 05:44:00,
2013-09-25 22:49:00,40.8,31.1,29.86,NNE,23,2.2,2.4,68,0.00,,,0.02,WUHU216TE923,2013-09-26 05:49:00,
2013-09-25 22:54:00,40.8,31.1,29.86,NNE,23,1.8,2.4,68,0.00,,,0.02,WUHU216TE923,2013-09-26 05:54:00,
2013-09-25 22:59:00,40.8,31.1,29.86,North,0,1.8,2.4,68,0.00,,,0.02,WUHU216TE923,2013-09-26 05:59:00,
2013-09-25 23:04:00,40.8,31.1,29.86,NW,315,2.2,2.7,68,0.00,,,0.02,WUHU216TE923,2013-09-26 06:04:00,
2013-09-25 23:09:00,40.8,31.1,29.86,NNW,338,2.3,2.7,68,0.00,,,0.02,WUHU216TE923,2013-09-26 06:09:00,
2013-09-25 23:14:00,40.8,31.1,29.86,NNW,338,2.1,2.3,68,0.00,,,0.02,WUHU216TE923,2013-09-26 06:14:00,
2013-09-25 23:19:00,40.6,30.9,29.86,NNW,338,1.9,4.1,68,0.00,,,0.02,WUHU216TE923,2013-09-26 06:19:00,
2013-09-25 23:24:00,40.6,30.9,29.86,North,0,1.9,4.1,68,0.00,,,0.02,WUHU216TE923,2013-09-26 06:24:00,
2013-09-25 23:29:00,40.6,30.9,29.86,NW,315,2.0,2.8,68,0.00,,,0.02,WUHU216TE923,2013-09-26 06:29:00,
2013-09-25 23:34:00,40.6,30.9,29.86,NW,315,2.2,3.3,68,0.00,,,0.02,WUHU216TE923,2013-09-26 06:34:00,
2013-09-25 23:39:00,40.6,30.9,29.86,NNW,338,2.3,3.3,68,0.00,,,0.02,WUHU216TE923,2013-09-26 06:39:00,
2013-09-25 23:44:00,40.5,30.9,29.86,North,0,2.2,2.3,68,0.00,,,0.02,WUHU216TE923,2013-09-26 06:44:00,
2013-09-25 23:49:00,40.5,30.9,29.86,WNW,293,2.1,2.5,68,0.00,,,0.02,WUHU216TE923,2013-09-26 06:49:00,
2013-09-25 23:54:00,40.5,31.2,29.86,NNW,338,2.4,2.5,69,0.00,,,0.02,WUHU216TE923,2013-09-26 06:54:00,
2013-09-25 23:59:00,40.5,31.2,29.86,NW,315,2.4,3.8,69,0.00,,,0.02,WUHU216TE923,2013-09-26 06:59:00,